Torna al catalogo

TJS-2

AttivoComunicazioniGEO
NORAD 41911·PAYLOAD·🇨🇳 China

Lanciato Jan 5, 2017 da Xichang Satellite Launch Center

Loading…

TLE

AggiornatoSource: Space-Track

Epoca: Sep 14, 2026, 14:07 UTC

1 41911U 17001A   26257.58836106 -.00000014  00000-0  00000-0 0  9990
2 41911   1.0576  83.9361 0001528 150.5985  37.4028  1.00271226 35616

Traccia TJS-2 in tempo reale con AllMySat

Download on the App Store